DEIMOS-2

Last updated on Mon Sep 21 2026 00:02:45 GMT+0000 (Coordinated Universal Time)

1 40013U 14033D 26263.63437834 .00000266 00000+0 30119-4 0 9997 2 40013 97.5662 134.7062 0001937 54.2327 305.9074 14.93931807651972
UTC large
Height (km)
Speed (km/s)
/
Latitude / Longitude
Inclination (degrees)
Orbital Period (minutes)
Azimuth
Elevation
Range (km)
Doppler Factor

Next 0 passes for location: London (51.5072 / 0.1276)

No passes found over London.
DEIMOS-2